GM4ZUK-13 Weather Reports


time (UTC)temp
C
wind
direction
speed
KPH
gust
KPH
rain 1hr
cm
rain 24hr
cm
rain mn
cm
humidity
%
barometer
mb
20260506094258 10 337 0.0 3.2 0.00 0.00 0.00 61 1024.5
20260506093357 10 337 0.0 6.4 0.00 0.00 0.00 60 1024.7
20260506092457 10 337 0.0 3.2 0.00 0.00 0.00 56 1024.8
20260506091557 10 337 0.0 6.4 0.00 0.00 0.00 56 1024.7
20260506090911 9 337 0.0 6.4 0.00 0.00 0.00 55 1024.8
20260506085758 10 337 1.6 3.2 0.00 0.00 0.00 56 1025.0
20260506084857 9 0 0.0 0.0 0.00 0.00 0.00 58 1024.8
20260506083958 10 0 0.0 0.0 0.00 0.00 0.00 63 1025.0
20260506083059 9 0 0.0 0.0 0.00 0.00 0.00 63 1025.1
20260506082158 8 0 0.0 0.0 0.00 0.00 0.00 66 1025.1
20260506081257 8 0 0.0 0.0 0.00 0.00 0.00 70 1025.1
20260506080357 7 0 0.0 0.0 0.00 0.00 0.00 71 1025.1
20260506073011 6 0 0.0 0.0 0.00 0.03 0.00 75 1025.6
20260506071857 5 0 0.0 0.0 0.00 0.03 0.00 79 1025.5
20260506070959 5 0 0.0 0.0 0.00 0.03 0.00 82 1025.5
20260506070308 4 0 0.0 0.0 0.00 0.03 0.00 87 1025.5
20260506062457 1 360 0.0 3.2 0.00 0.05 0.00 96 1025.6
20260506061810 1 360 0.0 3.2 0.00 0.05 0.00 96 1025.7
20260506060657 1 0 0.0 0.0 0.00 0.05 0.00 97 1025.7
20260506051257 -2 0 0.0 0.0 0.00 0.05 0.00 98 1025.8
20260506050357 -2 0 0.0 0.0 0.00 0.05 0.00 97 1025.9
20260506044558 -2 0 0.0 0.0 0.00 0.05 0.00 97 1025.8
20260506043659 -2 0 0.0 0.0 0.00 0.05 0.00 97 1025.9
20260506042757 -2 0 0.0 0.0 0.00 0.05 0.00 97 1025.7
20260506041857 -2 0 0.0 0.0 0.00 0.05 0.00 97 1025.9
20260506040958 -2 0 0.0 0.0 0.00 0.05 0.00 97 1025.6
20260506040057 -2 0 0.0 0.0 0.00 0.05 0.00 97 1025.9
20260506035157 -2 0 0.0 0.0 0.00 0.05 0.00 97 1025.7
20260506034258 -2 0 0.0 0.0 0.00 0.05 0.00 97 1026.0
20260506033359 -2 0 0.0 0.0 0.00 0.05 0.00 97 1026.1
20260506032457 -2 0 0.0 0.0 0.00 0.05 0.00 97 1025.7
20260506031807 -2 0 0.0 0.0 0.00 0.05 0.00 97 1025.9
20260506030657 -2 0 0.0 0.0 0.00 0.05 0.00 97 1025.8
20260506025757 -2 0 0.0 0.0 0.00 0.05 0.00 97 1025.8
20260506024858 -2 0 0.0 0.0 0.00 0.05 0.00 96 1025.9
20260506023958 -1 0 0.0 0.0 0.00 0.05 0.00 97 1026.0
20260506023057 -1 0 0.0 0.0 0.00 0.05 0.00 96 1025.8
20260506022158 -2 360 0.0 3.2 0.00 0.05 0.00 96 1025.7
20260506021259 -1 360 0.0 3.2 0.00 0.05 0.00 96 1025.9
20260506020359 -2 360 0.0 3.2 0.00 0.05 0.00 96 1026.0
20260506014553 -1 0 0.0 0.0 0.00 0.05 0.00 96 1025.8
20260506013653 -1 0 0.0 0.0 0.00 0.05 0.00 95 1026.1
20260506012754 -1 0 0.0 0.0 0.00 0.05 0.00 95 1025.9
20260506011854 -1 0 0.0 0.0 0.00 0.05 0.00 95 1026.0
20260506010953 -1 0 0.0 0.0 0.00 0.05 0.00 95 1026.2
20260506010054 -1 0 0.0 0.0 0.00 0.05 0.00 95 1026.0
20260506005406 -1 0 0.0 0.0 0.00 0.05 0.00 95 1026.0
20260506004254 -1 0 0.0 0.0 0.00 0.05 0.00 95 1026.1
20260506003353 -1 0 0.0 0.0 0.00 0.05 0.00 95 1026.2
20260506002456 -1 0 0.0 0.0 0.00 0.05 0.00 95 1026.1
20260506001553 -1 0 0.0 0.0 0.00 0.05 0.00 94 1026.1
20260506000654 0 0 0.0 0.0 0.00 0.05 0.00 94 1026.2
20260505235754 -1 0 0.0 0.0 0.00 0.05 0.00 94 1026.1
20260505234854 -1 0 0.0 0.0 0.00 0.05 0.00 93 1026.2
20260505233953 0 0 0.0 0.0 0.00 0.05 0.00 94 1026.3
20260505233054 0 0 0.0 0.0 0.00 0.05 0.00 93 1026.4
20260505232405 0 0 0.0 0.0 0.00 0.05 0.00 93 1026.4
20260505231254 0 0 0.0 0.0 0.00 0.05 0.00 92 1026.3
20260505230353 0 0 0.0 0.0 0.00 0.05 0.00 92 1026.5
20260505225454 0 0 0.0 0.0 0.00 0.05 0.05 91 1026.2
20260505224553 0 0 0.0 0.0 0.00 0.05 0.05 91 1026.3
20260505223907 0 0 0.0 0.0 0.00 0.05 0.05 91 1026.3
20260505222755 0 360 0.0 3.2 0.00 0.05 0.05 90 1026.4
20260505221854 0 0 0.0 0.0 0.00 0.05 0.05 90 1026.4
20260505220953 0 0 0.0 0.0 0.00 0.05 0.05 90 1026.4
20260505220306 0 0 0.0 0.0 0.00 0.05 0.05 89 1026.3
20260505215154 0 0 0.0 0.0 0.00 0.05 0.05 88 1026.3
20260505214253 0 0 0.0 0.0 0.00 0.05 0.05 87 1026.4
20260505213354 1 0 0.0 0.0 0.00 0.05 0.05 86 1026.2
20260505212453 1 0 0.0 0.0 0.00 0.05 0.05 85 1026.2
20260505211808 1 0 0.0 0.0 0.00 0.10 0.05 84 1026.3
20260505210653 1 0 0.0 0.0 0.00 0.10 0.05 81 1026.3
20260505205753 2 0 0.0 0.0 0.00 0.10 0.05 80 1026.1
20260505204853 2 0 0.0 0.0 0.00 0.13 0.05 80 1026.4
20260505203953 3 0 0.0 0.0 0.00 0.13 0.05 79 1026.3
20260505203054 3 360 0.0 3.2 0.00 0.13 0.05 77 1026.1
20260505202153 5 360 1.6 3.2 0.00 0.13 0.05 73 1025.9
20260505201504 5 360 0.0 3.2 0.00 0.13 0.05 69 1026.1
20260505200355 5 360 0.0 6.4 0.00 0.13 0.05 67 1025.9
20260505195454 6 353 0.0 6.4 0.00 0.13 0.05 64 1026.1
20260505194555 6 340 3.2 6.4 0.00 0.13 0.05 64 1025.9
20260505193655 6 359 3.2 6.4 0.00 0.13 0.05 63 1026.0
20260505192754 6 360 3.2 6.4 0.00 0.13 0.05 65 1025.9
20260505191855 6 19 3.2 9.7 0.00 0.13 0.05 64 1025.7
20260505191206 6 9 3.2 9.7 0.00 0.13 0.05 63 1025.6
20260505190054 7 359 1.6 9.7 0.00 0.13 0.05 59 1025.6
20260505185153 7 359 4.8 9.7 0.00 0.13 0.05 56 1025.5
20260505184253 7 355 3.2 12.9 0.00 0.13 0.05 57 1025.4
20260505183354 7 356 6.4 17.7 0.00 0.13 0.05 56 1025.5
20260505182453 7 6 11.3 17.7 0.00 0.13 0.05 53 1025.5
20260505181554 8 347 3.2 12.9 0.00 0.13 0.05 54 1025.6
20260505180655 7 345 6.4 12.9 0.00 0.13 0.05 54 1025.4
20260505175753 8 352 6.4 20.9 0.00 0.13 0.05 54 1025.5
20260505174853 8 1 3.2 17.7 0.00 0.13 0.05 52 1025.4
20260505173953 8 5 6.4 12.9 0.00 0.13 0.05 52 1025.4
20260505173054 8 3 3.2 14.5 0.00 0.13 0.05 51 1025.6
20260505172153 8 350 6.4 11.3 0.00 0.13 0.05 46 1025.7
20260505171253 8 342 3.2 17.7 0.00 0.13 0.05 46 1025.5
20260505170355 8 355 4.8 24.1 0.00 0.13 0.05 44 1025.3
20260505165458 8 348 8.0 22.5 0.00 0.13 0.05 44 1025.4
20260505164558 9 5 8.0 17.7 0.00 0.13 0.05 44 1025.4
20260505163905 8 349 6.4 20.9 0.00 0.13 0.05 47 1025.2
20260505162754 8 343 6.4 17.7 0.00 0.13 0.05 45 1025.2
20260505161853 8 354 8.0 12.9 0.00 0.13 0.05 47 1025.3
20260505160953 8 337 6.4 17.7 0.00 0.13 0.05 46 1025.4
20260505153353 8 352 6.4 12.9 0.00 0.13 0.05 55 1025.4
20260505152704 8 11 3.2 17.7 0.00 0.13 0.05 58 1025.4
20260505151553 8 358 3.2 17.7 0.00 0.13 0.05 57 1025.3
20260505150653 8 356 4.8 17.7 0.00 0.13 0.05 57 1025.5
20260505140353 9 345 8.0 12.9 0.00 0.13 0.05 62 1025.1
20260505124253 8 344 3.2 20.9 0.00 0.13 0.05 62 1025.3
20260505123354 8 357 6.4 20.9 0.00 0.13 0.05 62 1025.2
20260505122454 8 11 6.4 17.7 0.00 0.13 0.05 64 1025.2
20260505121553 8 355 4.8 17.7 0.00 0.13 0.05 67 1025.0
20260505120653 8 356 11.3 33.8 0.00 0.13 0.05 65 1025.1
20260505115753 8 335 3.2 12.9 0.00 0.13 0.05 67 1024.8
20260505115105 8 360 3.2 14.5 0.00 0.13 0.05 67 1024.8
20260505114202 8 358 3.2 17.7 0.00 0.13 0.05 68 1025.0
20260505113053 8 342 6.4 24.1 0.00 0.13 0.05 68 1024.8
20260505112153 8 355 4.8 17.7 0.00 0.13 0.05 73 1024.9
20260505111253 7 350 8.0 20.9 0.00 0.13 0.05 73 1024.8
20260505110354 7 343 9.7 20.9 0.00 0.13 0.05 74 1025.0
20260505101853 7 339 6.4 24.1 0.00 0.13 0.05 76 1024.6
20260505100954 7 2 8.0 17.7 0.00 0.13 0.05 74 1024.5
20260505100055 7 358 3.2 12.9 0.00 0.13 0.05 75 1024.6
20260505095154 7 9 4.8 17.7 0.00 0.13 0.05 77 1024.5